Flag for U.S.A. Weather past 2 weeks in Simi Valley, California, U.S.A.

Now
81 °F

Sunny.


Feels Like: 80 °F
Forecast: 60 / 90 °F
Wind: No wind

Location: Van Nuys Airport

Current Time: Sep 23, 2014 at 8:07:28 PM

Latest Report: Sep 23, 2014 at 6:51 PM


Visibility: 10 mi

Pressure: 29.86 "Hg

Humidity: 29%

Dew point: 46 °F

Location of Simi ValleyLocation

Historic Weather in Simi Valley — Graph

°F

Simi Valley temperature yesterday

Maximum temperature yesterday: 89 °F (at 3:51 PM)
Minimum temperature yesterday: 60 °F (at 6:51 AM)
Average temperature yesterday: 74 °F

Past Weeks' High & Low Weather Summary

 TemperatureHumidityPressure
High106 °F (Sep 14, 12:51 PM)85% (Sep 20, 5:51 AM)29.99 "Hg (Sep 20, 5:51 AM)
Low60 °F (Sep 22, 6:51 AM)10% (Sep 23, 3:51 PM)29.64 "Hg (Sep 16, 4:51 PM)
Average81 °F44%29.81 "Hg
* Reported Sep 8 6:51 PM — Sep 23 6:51 PM, Simi Valley, Weather by CustomWeather, © 2014

Note: Actual official high and low records may vary slightly from our data, if they occured in-between our weather recording intervals... More about our weather records

Advertising

Simi Valley weather history for previous 24 hours

 ConditionsComfort  
Time TempWeatherWind HumidityBarometerVisibility
6:51 PM
Sep 23
81 °FSunny.No wind29%29.86 "Hg10 mi
5:51 PM89 °FSunny.6 mph12%29.85 "Hg10 mi
4:51 PM91 °FSunny.8 mph10%29.85 "Hg10 mi
3:51 PM92 °FSunny.6 mph10%29.86 "Hg10 mi
2:51 PM93 °FSunny.6 mph13%29.88 "Hg10 mi
1:51 PM93 °FSunny.10 mph13%29.89 "Hg10 mi
12:51 PM91 °FSunny.6 mph26%29.92 "Hg10 mi
11:51 AM86 °FSunny.5 mph30%29.94 "Hg10 mi
10:51 AM82 °FSunny.No wind37%29.96 "Hg10 mi
9:51 AM77 °FSunny.No wind48%29.96 "Hg10 mi
8:51 AM69 °FSunny.No wind66%29.97 "Hg10 mi
7:51 AM64 °FSunny.No wind73%29.96 "Hg10 mi
6:51 AM63 °FClear.No wind75%29.94 "Hg10 mi
5:51 AM63 °FClear.No wind75%29.93 "Hg10 mi
4:51 AM62 °FClear.No wind78%29.92 "Hg10 mi
3:51 AM64 °FClear.No wind75%29.92 "Hg10 mi
2:51 AM65 °FClear.No wind81%29.93 "Hg10 mi
1:51 AM67 °FClear.No wind79%29.93 "Hg10 mi
12:51 AM67 °FClear.No wind79%29.93 "Hg10 mi
11:51 PM
Sep 22
68 °FClear.No wind76%29.93 "Hg10 mi
10:51 PM71 °FClear.No wind68%29.92 "Hg10 mi
9:51 PM73 °FClear.No wind59%29.91 "Hg10 mi
8:51 PM75 °FClear.3 mph52%29.90 "Hg10 mi
Weather by CustomWeather, © 2014

See weather overviewHow to use our weather pages